User: anonymous   Login
Location: *
(90.0000°N, 180.0000°W)
Time: 04:01:37
(UTC+02:00)
Language:

Cosmos 1825 - Orbit

View from above orbital plane
View from above orbital plane
View from above satellite
View from above satellite

Ground track
Ground track

The orbit data is extracted from the following two-line orbital elements,

1 17566U 87024A   17289.21214017 +.00001241 +00000-0 +57915-4 0  9990
2 17566 082.5063 170.1688 0004675 135.0098 225.1516 15.18915123671923
Epoch (UTC): 16 October 2017 05:05:28
Eccentricity: 0.0004675
inclination: 82.5063°
perigee height: 506 km
apogee height: 512 km
right ascension of ascending node: 170.1688°
argument of perigee: 135.0098°
revolutions per day: 15.18915123
mean anomaly at epoch: 225.1516°
orbit number at epoch: 67192

The dashed part of the orbit path shows where the satellite is in the earth's shadow,  

DLR